Location: Capvern
(43.1036°N, 0.3160°E)
Time: 03:10:04
(UTC+00:00)

Cosmos 1980 Rocket - Pass Details

Date: 16 October 2021
Orbit: 828 x 851 km, 71.0° (Epoch: 02 December)

Event Time Altitude Azimuth Distance (km) Brightness Sun altitude
Rises 18:56:56 0° 214° (SW) 3,375 5.7 -19.5°
Reaches altitude 10° 18:59:24 10° 219° (SW) 2,448 5.0 -20.0°
Maximum altitude 19:04:57 59° 298° (WNW) 971 2.7 -21.0°
Drops below altitude 10° 19:10:34 10° 18° (NNE) 2,478 4.5 -22.0°
Sets 19:13:04 0° 22° (NNE) 3,420 5.2 -22.4°
